Tracking 19709 objects as of 19-Jun-2019
HD Live streaming from Space Station
objects crossing your sky now

ATLAS D R/B

Track ATLAS D R/B now!
10-day predictions


NORAD ID: 2328
Int'l Code: 1966-063C
Perigee: 999.9 km
Apogee: 1,015.0 km
Inclination: 144.2 °
Period: 105.1 minutes
Semi major axis: 7378 km
RCS: 1.0156 m2 (large)
Launch date: July 14, 1966
Source: United States (US)
Launch site: AIR FORCE WESTERN TEST RANGE (AFWTR)

Note: This is a ROCKET BODY
aabbcc
Your satellite tracking list
Your tracking list is empty




NASA's NSSDC Master Catalog

Two Line Element Set (TLE):
1  2328U 66063C   19170.04448392  .00000250  00000-0  31965-5 0  9994
2  2328 144.2291 211.6988 0010229 281.8698 105.3815 13.69792497650259
Source of the keplerian elements: AFSPC